#timestamp,LO_Frequency,Hit,StdDev 
1643864415.7,286047000.1,N
1643864435.5,286047000.2,N
1643864455.3,286047002.8,N
1643864475.2,286047002.2,N
1643864495.0,286047002.6,N
1643864495.9,286047002.6,N
1643864515.8,286047002.5,N
1643864535.6,286047000.1,N
1643864555.4,286047002.6,N
1643864575.3,286047002.2,N
1643864595.1,286047001.4,N
1643864615.8,286047002.3,N
1643864635.7,286047002.0,N
1643864655.5,286047002.5,N
1643864675.4,286047002.7,N
1643864695.2,286047004.3,Y
1643864715.0,286047000.8,P
1643864715.9,286047000.8,N
1643864735.8,286047000.4,N
1643864755.6,286047001.2,N
1643864775.4,286046999.4,N
1643864795.3,286046996.6,Y
1643864815.1,286046997.7,P
1643864835.9,286046997.1,N
1643864855.7,286046996.5,N
1643864875.5,286046996.9,N
1643864895.4,286046996.9,N
1643864915.2,286046997.3,N
1643864935.1,286046997.2,N
1643864936.0,286046997.2,N
1643864955.8,286046996.6,N
1643864975.7,286046999.1,N
1643864995.5,286046999.1,N
1643865015.3,286046999.5,N
1643865035.2,286046997.1,N
1643865055.0,286046995.1,Y
1643865055.9,286046995.1,P
1643865075.8,286046996.6,N
1643865095.6,286046999.2,N
1643865115.4,286046999.4,N
1643865135.3,286046999.4,N
1643865155.1,286046998.2,N
1643865175.8,286047002.8,N
1643865195.7,286047001.0,N
1643865215.5,286046998.1,N
1643865235.4,286047000.7,N
1643865255.2,286047001.2,N
1643865275.0,286046999.0,N
1643865275.9,286046999.0,N
1643865295.8,286047000.0,N
1643865315.6,286047000.0,N
1643865335.5,286047002.2,N
1643865355.3,286047002.8,N
1643865375.1,286047000.7,N
1643865395.9,286047002.5,N
1643865415.7,286046999.7,N
1643865435.5,286047000.8,N
1643865455.4,286047000.3,N
1643865475.2,286047000.0,N
1643865495.1,286047002.4,N
1643865496.0,286047002.4,N
1643865515.8,286047002.7,N
1643865535.6,286047004.0,N
1643865555.5,286047000.2,N
1643865575.3,286046999.8,N
1643865595.1,286047002.6,N
1643865615.9,286047002.1,N
1643865635.7,286047002.7,N
1643865655.6,286047004.0,N
1643865675.4,286047001.8,N
1643865695.2,286047003.9,N
1643865715.1,286047002.7,N
1643865716.0,286047002.7,N
1643865735.8,286047002.8,N
1643865755.7,286047000.5,N
1643865775.5,286047000.8,N
1643865795.3,286046998.5,N
1643865815.2,286046998.1,N
1643865835.9,286047000.7,N
1643865855.7,286046998.5,N
1643865875.6,286047000.3,N
1643865895.4,286046998.6,N
1643865915.3,286046998.2,N
1643865935.1,286047000.1,N
1643865936.0,286047000.1,N
1643865955.8,286047000.7,N
1643865975.7,286047000.8,N
1643865995.5,286047000.7,N
1643866015.3,286047000.8,N
1643866035.2,286047000.1,N
1643866055.0,286047000.1,N
1643866055.9,286047000.1,N
1643866075.8,286047000.7,N
1643866095.6,286046998.6,N
1643866115.4,286047000.7,N
1643866135.3,286047000.9,N
1643866155.1,286046998.1,N
1643866175.9,286046998.4,N
1643866195.7,286046998.7,N
1643866215.5,286047001.0,N
1643866235.4,286046998.5,N
1643866255.2,286046998.6,N
1643866275.0,286046998.2,N
1643866275.9,286046998.2,N
1643866295.8,286047001.0,N
1643866315.6,286046997.0,N
1643866335.5,286046999.1,N
1643866355.3,286046998.9,N
1643866375.1,286046996.6,N
1643866395.9,286046999.3,N
1643866415.7,286046998.2,N
1643866435.5,286047000.3,N
1643866455.4,286047001.2,N
1643866475.2,286046998.3,N
1643866495.1,286046998.5,N
1643866496.0,286046998.5,N
1643866515.8,286046998.8,N
1643866535.6,286046998.9,N
1643866555.5,286046999.3,N
1643866575.3,286046999.1,N
1643866595.2,286047000.8,N
1643866615.9,286047000.5,N
1643866635.7,286047002.8,N
1643866655.6,286047002.8,N
1643866675.4,286047002.3,N
1643866695.2,286047000.4,N
1643866715.1,286047000.9,N
1643866716.0,286047000.9,N
1643866735.8,286047000.5,N
1643866755.7,286047000.5,N
1643866775.5,286046999.9,N
1643866795.3,286047000.4,N
1643866815.2,286047000.6,N
1643866835.0,286047000.7,N
1643866855.2,286047000.1,N
1643866875.0,286047002.0,N
1643866875.9,286047002.0,N
1643866895.8,286047002.0,N
1643866915.6,286047002.0,N
1643866935.4,286047003.8,N
1643866955.3,286047000.0,N
1643866975.1,286047000.5,N
1643866995.8,286047002.1,N
1643867015.7,286047001.7,N
1643867035.5,286046999.8,N
1643867055.4,286047000.1,N
1643867075.2,286047002.4,N
1643867095.0,286047002.3,N
1643867095.9,286047002.3,N
1643867115.8,286046999.7,N
1643867135.6,286047002.4,N
1643867155.4,286047002.7,N
1643867175.3,286047000.0,N
1643867195.1,286047000.9,N
1643867215.9,286047000.5,N
1643867235.7,286047000.8,N
1643867255.5,286047000.4,N
1643867275.4,286047001.1,N
1643867295.2,286047000.4,N
1643867315.0,286047000.6,N
1643867316.0,286047000.6,N
1643867335.8,286047000.1,N
1643867355.6,286047000.1,N
1643867375.5,286046999.7,N
1643867395.3,286047000.5,N
1643867415.1,286046998.7,N
1643867435.9,286047000.6,N
1643867455.7,286046999.8,N
1643867475.5,286047000.2,N
1643867495.4,286047002.8,N
1643867515.2,286047002.1,N
1643867535.1,286047002.1,N
1643867536.0,286047002.1,N
1643867555.8,286047000.9,N
1643867575.6,286047000.7,N
1643867595.5,286046998.1,N
1643867615.3,286046998.1,N
1643867635.2,286047000.8,N
1643867655.9,286046998.8,N
1643867675.7,286046999.3,N
1643867695.6,286046998.5,N
1643867715.4,286046999.5,N
1643867735.2,286046999.3,N
1643867755.1,286047000.5,N
1643867756.0,286047000.5,N
1643867775.8,286047000.1,N
1643867795.7,286047000.4,N
1643867815.5,286047000.5,N
1643867835.3,286046998.6,N
1643867855.2,286046999.7,N
1643867875.9,286047000.3,N
1643867895.7,286047002.1,N
1643867915.6,286047002.4,N
1643867935.4,286047002.6,N
1643867955.3,286047001.5,N
1643867975.1,286047002.2,N
1643867976.0,286047002.2,N
1643867995.8,286047000.4,N
